Sacramento / Mc Clellan, CA

11:09 PM PDT on June 25, 2017 (GMT -0700)
McClellan

Weather History for KMCC - May, 2013

Change the Weather History Date:

Sunday, May 5, 2013

  Actual Average (KMHR) Record (KMHR)
Temperature  
Mean Temperature 64 °F -  
Max Temperature 75 °F 75 °F 87 °F (2001)
Min Temperature 53 °F 46 °F 41 °F (2003)
Degree Days  
Heating Degree Days 1    
Growing Degree Days 14 (Base 50)    
Moisture  
Dew Point 45 °F    
Average Humidity 51    
Maximum Humidity 77    
Minimum Humidity 29    
Precipitation  
Precipitation 0.00 in - - ()
Sea Level Pressure  
Sea Level Pressure 29.69 in    
Wind  
Wind Speed 10 mph (South)    
Max Wind Speed 16 mph    
Max Gust Speed 24 mph    
Visibility 9 miles    
Events      
Averages and records for this station are not official NWS values.
T = Trace of Precipitation, MM = Missing Value Source: NWS Daily Summary

Daily Weather History Graph

Daily Weather History Graph

Search for Another Location

Airport or City:

Trip Planner

Search our weather history database for the weather conditions in past years. The results will help you decide how hot, cold, wet, or windy it might be!

Date:

Astronomy

May. 05, 2013 Rise Set
Actual Time 6:03 AM PDT 8:01 PM PDT
Civil Twilight 5:34 AM PDT 8:30 PM PDT
Nautical Twilight 4:58 AM PDT 9:06 PM PDT
Astronomical Twilight 4:20 AM PDT 9:44 PM PDT
Moon 3:33 AM PDT (5/5) 4:09 PM PDT (5/5)
Length of Visible Light 14h 56m
Length of Day
13h 58m
Waning Crescent, 17% of the Moon is Illuminated
May 5
Waning Crescent
May 9
New
May 17
First Quarter
May 24
Full
May 31
Last Quarter

Hourly Weather History & Observations

Time (PDT) Temp. Dew Point Humidity Pressure Visibility Wind Dir Wind Speed Gust Speed Precip Events Conditions
12:05 AM 59.0 °F 46.4 °F 63% 29.57 in 8.0 mi SSE 12.7 mph - N/A   Clear
12:25 AM 59.0 °F 46.4 °F 63% 29.57 in 7.0 mi SE 12.7 mph - N/A   Clear
12:45 AM 59.0 °F 46.4 °F 63% 29.58 in 8.0 mi SE 12.7 mph - N/A   Clear
1:05 AM 59.0 °F 46.4 °F 63% 29.57 in 8.0 mi SSE 12.7 mph - N/A   Clear
1:25 AM 57.2 °F 46.4 °F 67% 29.57 in 8.0 mi SSE 10.4 mph - N/A   Clear
1:45 AM 57.2 °F 46.4 °F 67% 29.57 in 9.0 mi South 11.5 mph - N/A   Clear
2:05 AM 57.2 °F 46.4 °F 67% 29.57 in 9.0 mi South 10.4 mph - N/A   Clear
2:25 AM 57.2 °F 46.4 °F 67% 29.56 in 9.0 mi SSE 11.5 mph - N/A   Clear
2:45 AM 57.2 °F 46.4 °F 67% 29.56 in 10.0 mi SSE 9.2 mph - N/A   Clear
3:05 AM 57.2 °F 46.4 °F 67% 29.57 in 9.0 mi South 11.5 mph - N/A   Clear
3:25 AM 57.2 °F 44.6 °F 63% 29.57 in 9.0 mi SSE 11.5 mph - N/A   Clear
3:45 AM 59.0 °F 44.6 °F 59% 29.58 in 9.0 mi South 12.7 mph 18.4 mph N/A   Clear
4:05 AM 57.2 °F 44.6 °F 63% 29.60 in 9.0 mi SSE 15.0 mph 21.9 mph N/A   Clear
4:25 AM 57.2 °F 46.4 °F 67% 29.60 in 9.0 mi SSE 12.7 mph 21.9 mph N/A   Clear
4:45 AM 57.2 °F 46.4 °F 67% 29.61 in 10.0 mi SSE 11.5 mph - N/A   Clear
5:05 AM 55.4 °F 46.4 °F 72% 29.63 in 10.0 mi SE 12.7 mph - N/A   Clear
5:25 AM 55.4 °F 46.4 °F 72% 29.63 in 9.0 mi ESE 11.5 mph - N/A   Clear
5:45 AM 55.4 °F 46.4 °F 72% 29.64 in 9.0 mi SE 11.5 mph - N/A   Clear
6:05 AM 53.6 °F 46.4 °F 77% 29.65 in 8.0 mi SSE 9.2 mph - N/A   Clear
6:25 AM 53.6 °F 46.4 °F 77% 29.66 in 8.0 mi SSE 8.1 mph - N/A   Clear
6:45 AM 55.4 °F 46.4 °F 72% 29.66 in 7.0 mi SSE 8.1 mph - N/A   Clear
7:05 AM 57.2 °F 46.4 °F 67% 29.68 in 8.0 mi South 8.1 mph - N/A   Clear
7:25 AM 57.2 °F 46.4 °F 67% 29.68 in 8.0 mi SSW 6.9 mph - N/A   Clear
7:45 AM 60.8 °F 46.4 °F 59% 29.69 in 7.0 mi SW 15.0 mph 20.7 mph N/A   Clear
8:05 AM 62.6 °F 44.6 °F 52% 29.70 in 8.0 mi SW 12.7 mph 24.2 mph N/A   Clear
8:25 AM 62.6 °F 44.6 °F 52% 29.70 in 9.0 mi WSW 13.8 mph 20.7 mph N/A   Clear
8:45 AM 62.6 °F 44.6 °F 52% 29.71 in 8.0 mi SSW 12.7 mph 19.6 mph N/A   Clear
9:05 AM 62.6 °F 44.6 °F 52% 29.72 in 9.0 mi SW 12.7 mph - N/A   Clear
9:25 AM 64.4 °F 44.6 °F 49% 29.72 in 9.0 mi SW 10.4 mph 18.4 mph N/A   Clear
9:45 AM 64.4 °F 44.6 °F 49% 29.72 in 7.0 mi South 12.7 mph - N/A   Clear
10:05 AM 64.4 °F 44.6 °F 49% 29.73 in 9.0 mi SW 12.7 mph 17.3 mph N/A   Clear
10:25 AM 64.4 °F 44.6 °F 49% 29.73 in 8.0 mi SW 8.1 mph - N/A   Clear
10:45 AM 66.2 °F 44.6 °F 46% 29.74 in 8.0 mi SW 11.5 mph 23.0 mph N/A   Clear
11:05 AM 66.2 °F 44.6 °F 46% 29.74 in 10.0 mi SSW 9.2 mph - N/A   Partly Cloudy
11:25 AM 66.2 °F 44.6 °F 46% 29.74 in 9.0 mi WSW 6.9 mph 16.1 mph N/A   Clear
11:45 AM 68.0 °F 44.6 °F 43% 29.74 in 8.0 mi SW 10.4 mph - N/A   Clear
12:05 PM 68.0 °F 44.6 °F 43% 29.74 in 9.0 mi South 6.9 mph - N/A   Clear
12:25 PM 68.0 °F 44.6 °F 43% 29.73 in 8.0 mi SSW 11.5 mph - N/A   Clear
12:45 PM 68.0 °F 44.6 °F 43% 29.73 in 9.0 mi WNW 4.6 mph - N/A   Clear
1:05 PM 69.8 °F 44.6 °F 40% 29.73 in 9.0 mi SSW 4.6 mph - N/A   Clear
1:25 PM 69.8 °F 44.6 °F 40% 29.72 in 9.0 mi SW 8.1 mph - N/A   Partly Cloudy
1:45 PM 68.0 °F 44.6 °F 43% 29.72 in 9.0 mi SSW 4.6 mph - N/A   Clear
2:05 PM 68.0 °F 42.8 °F 40% 29.72 in 9.0 mi Calm Calm - N/A   Clear
2:25 PM 71.6 °F 42.8 °F 35% 29.72 in 9.0 mi WSW 10.4 mph - N/A   Clear
2:45 PM 71.6 °F 42.8 °F 35% 29.72 in 9.0 mi WSW 8.1 mph - N/A   Clear
3:05 PM 71.6 °F 42.8 °F 35% 29.72 in 10.0 mi WSW 4.6 mph - N/A   Clear
3:25 PM 71.6 °F 42.8 °F 35% 29.72 in 10.0 mi NNE 3.5 mph - N/A   Clear
3:45 PM 73.4 °F 42.8 °F 33% 29.71 in 9.0 mi NW 5.8 mph - N/A   Clear
4:05 PM 71.6 °F 42.8 °F 35% 29.71 in 9.0 mi East 3.5 mph - N/A   Clear
4:25 PM 73.4 °F 42.8 °F 33% 29.71 in 9.0 mi East 3.5 mph - N/A   Clear
4:45 PM 73.4 °F 42.8 °F 33% 29.71 in 9.0 mi ESE 4.6 mph - N/A   Clear
5:05 PM 73.4 °F 42.8 °F 33% 29.71 in 9.0 mi ESE 9.2 mph - N/A   Scattered Clouds
5:25 PM 73.4 °F 44.6 °F 36% 29.71 in 9.0 mi East 4.6 mph - N/A   Scattered Clouds
5:45 PM 73.4 °F 41.0 °F 31% 29.71 in 8.0 mi SE 10.4 mph - N/A   Scattered Clouds
6:05 PM 75.2 °F 41.0 °F 29% 29.71 in 8.0 mi SSE 11.5 mph 17.3 mph N/A   Partly Cloudy
6:25 PM 75.2 °F 41.0 °F 29% 29.71 in 10.0 mi SSE 11.5 mph - N/A   Scattered Clouds
6:45 PM 73.4 °F 41.0 °F 31% 29.72 in 9.0 mi SSE 8.1 mph - N/A   Partly Cloudy
7:05 PM 73.4 °F 42.8 °F 33% 29.72 in 8.0 mi South 11.5 mph - N/A   Scattered Clouds
7:25 PM 71.6 °F 42.8 °F 35% 29.73 in 7.0 mi SSE 16.1 mph - N/A   Partly Cloudy
7:45 PM 71.6 °F 42.8 °F 35% 29.74 in 9.0 mi SSE 9.2 mph 19.6 mph N/A   Clear
8:05 PM 71.6 °F 44.6 °F 38% 29.75 in 10.0 mi South 11.5 mph - N/A   Clear
8:25 PM 66.2 °F 46.4 °F 49% 29.75 in 10.0 mi SSW 13.8 mph - N/A   Clear
8:45 PM 66.2 °F 46.4 °F 49% 29.76 in 10.0 mi SSW 9.2 mph - N/A   Clear
9:05 PM 66.2 °F 46.4 °F 49% 29.77 in 10.0 mi SSW 6.9 mph - N/A   Clear
9:25 PM 66.2 °F 46.4 °F 49% 29.78 in 10.0 mi SSW 8.1 mph - N/A   Clear
9:45 PM 64.4 °F 46.4 °F 52% 29.79 in 10.0 mi SSW 4.6 mph - N/A   Clear
10:05 PM 64.4 °F 46.4 °F 52% 29.79 in 10.0 mi South 5.8 mph - N/A   Clear
10:25 PM 64.4 °F 46.4 °F 52% 29.80 in 10.0 mi South 6.9 mph - N/A   Partly Cloudy
10:45 PM 64.4 °F 46.4 °F 52% 29.80 in 10.0 mi SSW 6.9 mph - N/A   Scattered Clouds
11:05 PM 64.4 °F 46.4 °F 52% 29.80 in 10.0 mi South 5.8 mph - N/A   Mostly Cloudy
11:25 PM 64.4 °F 46.4 °F 52% 29.81 in 10.0 mi SSW 6.9 mph - N/A   Scattered Clouds
11:45 PM 64.4 °F 46.4 °F 52% 29.81 in 10.0 mi SSW 5.8 mph - N/A   Partly Cloudy